When you browse on this site, cookies collect data to enhance your experience and personalize the content and advertising you see.
Visit our Privacy Policy to learn more. By continuing to use the site, you agree to this use of cookies and data.
  • In Spain
  • List of Countries
  • For 7 days
  • Water Temperature
  • Weather Map
  • Weather Widgets
  • user-avatar
    Login

    Hourly Weather Mulchen

    Today, 23 January, Thursday

    Time Temperature Precipitation Wind Pressure Humidity
    00:00 +15°C° 0 mm 0 mps 743 mmHg 81%
    01:00 +14°C° 0 mm 0 mps 743 mmHg 89%
    02:00 +13°C° 0 mm 0 mps 744 mmHg 90%
    03:00 +13°C° 0 mm 0 mps 744 mmHg 92%
    04:00 +13°C° 0 mm 0 mps 745 mmHg 93%
    05:00 +15°C° 0 mm 0 mps 745 mmHg 83%
    06:00 +17°C° 0 mm 0 mps 746 mmHg 74%
    07:00 +19°C° 0 mm 0 mps 746 mmHg 64%
    08:00 +24°C° 0 mm 1 mps 746 mmHg 53%
    09:00 +27°C° 0 mm 1 mps 746 mmHg 41%
    10:00 +30°C° 0 mm 1 mps 747 mmHg 30%
    11:00 +32°C° 0 mm 2 mps 747 mmHg 25%
    12:00 +34°C° 0 mm 2 mps 746 mmHg 20%
    13:00 +36°C° 0 mm 3 mps 746 mmHg 15%
    14:00 +36°C° 0 mm 3 mps 746 mmHg 15%
    15:00 +36°C° 0 mm 3 mps 746 mmHg 15%
    16:00 +36°C° 0 mm 3 mps 746 mmHg 15%
    17:00 +33°C° 0 mm 4 mps 746 mmHg 21%
    18:00 +29°C° 0 mm 4 mps 747 mmHg 27%
    19:00 +26°C° 0 mm 4 mps 747 mmHg 32%
    20:00 +23°C° 0 mm 4 mps 747 mmHg 42%
    21:00 +20°C° 0 mm 3 mps 747 mmHg 51%
    22:00 +18°C° 0 mm 3 mps 747 mmHg 60%
    23:00 +17°C° 0 mm 3 mps 746 mmHg 64%

    Tomorrow, 24 January, Friday

    Time Temperature Precipitation Wind Pressure Humidity
    00:00 +16°C° 0 mm 3 mps 746 mmHg 68%
    01:00 +15°C° 0 mm 2 mps 746 mmHg 72%
    02:00 +15°C° 0 mm 2 mps 746 mmHg 72%
    03:00 +14°C° 0 mm 2 mps 746 mmHg 72%
    04:00 +14°C° 0 mm 2 mps 746 mmHg 73%
    05:00 +16°C° 0 mm 2 mps 746 mmHg 66%
    06:00 +17°C° 0 mm 2 mps 747 mmHg 60%
    07:00 +19°C° 0 mm 3 mps 747 mmHg 53%
    08:00 +22°C° 0 mm 3 mps 747 mmHg 43%
    09:00 +26°C° 0 mm 4 mps 747 mmHg 32%
    10:00 +29°C° 0 mm 4 mps 746 mmHg 22%
    11:00 +32°C° 0 mm 4 mps 746 mmHg 18%
    12:00 +33°C° 0 mm 4 mps 746 mmHg 14%
    13:00 +35°C° 0 mm 4 mps 746 mmHg 11%
    14:00 +34°C° 0 mm 4 mps 746 mmHg 11%
    15:00 +34°C° 0 mm 4 mps 746 mmHg 11%
    16:00 +34°C° 0 mm 4 mps 746 mmHg 11%
    17:00 +30°C° 0 mm 4 mps 746 mmHg 17%
    18:00 +26°C° 0 mm 4 mps 747 mmHg 23%
    19:00 +22°C° 0 mm 4 mps 747 mmHg 28%
    20:00 +20°C° 0 mm 4 mps 747 mmHg 35%
    21:00 +18°C° 0 mm 4 mps 747 mmHg 42%
    22:00 +16°C° 0 mm 3 mps 748 mmHg 49%
    23:00 +16°C° 0 mm 3 mps 747 mmHg 53%

    Day after tomorrow, 25 January, Saturday

    Time Temperature Precipitation Wind Pressure Humidity
    00:00 +14°C° 0 mm 3 mps 747 mmHg 58%
    01:00 +13°C° 0 mm 3 mps 747 mmHg 63%
    02:00 +13°C° 0 mm 3 mps 747 mmHg 63%
    03:00 +13°C° 0 mm 3 mps 747 mmHg 62%
    04:00 +14°C° 0 mm 3 mps 746 mmHg 62%
    05:00 +16°C° 0 mm 3 mps 747 mmHg 57%
    06:00 +18°C° 0 mm 3 mps 747 mmHg 53%
    07:00 +19°C° 0 mm 4 mps 747 mmHg 48%
    08:00 +22°C° 0 mm 4 mps 747 mmHg 42%
    09:00 +26°C° 0 mm 4 mps 746 mmHg 37%
    10:00 +29°C° 0 mm 5 mps 746 mmHg 31%
    11:00 +30°C° 0 mm 5 mps 746 mmHg 29%
    12:00 +32°C° 0 mm 5 mps 746 mmHg 27%
    13:00 +33°C° 0 mm 5 mps 745 mmHg 25%
    14:00 +33°C° 0 mm 5 mps 745 mmHg 26%
    15:00 +33°C° 0 mm 5 mps 745 mmHg 26%
    16:00 +33°C° 0 mm 4 mps 745 mmHg 26%
    17:00 +30°C° 0 mm 4 mps 746 mmHg 34%
    18:00 +27°C° 0 mm 4 mps 746 mmHg 41%
    19:00 +25°C° 0 mm 4 mps 746 mmHg 49%
    20:00 +22°C° 0 mm 4 mps 746 mmHg 56%
    21:00 +20°C° 0 mm 3 mps 747 mmHg 64%
    22:00 +19°C° 0 mm 3 mps 747 mmHg 71%
    23:00 +18°C° 0 mm 3 mps 747 mmHg 75%

    26 January, Sunday

    Time Temperature Precipitation Wind Pressure Humidity
    00:00 +17°C° 0 mm 3 mps 746 mmHg 79%
    01:00 +16°C° 0 mm 3 mps 746 mmHg 84%
    02:00 +16°C° 0 mm 3 mps 746 mmHg 84%
    03:00 +16°C° 0 mm 3 mps 746 mmHg 84%
    04:00 +16°C° 0 mm 3 mps 746 mmHg 85%
    05:00 +17°C° 0 mm 3 mps 746 mmHg 79%
    06:00 +18°C° 0 mm 3 mps 746 mmHg 74%
    07:00 +19°C° 0 mm 3 mps 746 mmHg 69%
    08:00 +22°C° 0 mm 3 mps 746 mmHg 59%
    09:00 +26°C° 0 mm 4 mps 746 mmHg 50%
    10:00 +29°C° 0 mm 4 mps 746 mmHg 40%
    11:00 +30°C° 0 mm 4 mps 746 mmHg 37%
    12:00 +33°C° 0 mm 4 mps 746 mmHg 34%
    13:00 +35°C° 0 mm 4 mps 746 mmHg 31%
    14:00 +34°C° 0 mm 4 mps 746 mmHg 33%
    15:00 +34°C° 0 mm 4 mps 746 mmHg 34%
    16:00 +33°C° 0 mm 4 mps 746 mmHg 35%
    17:00 +30°C° 0 mm 4 mps 746 mmHg 42%
    18:00 +28°C° 0 mm 4 mps 746 mmHg 49%
    19:00 +26°C° 0 mm 3 mps 747 mmHg 56%
    20:00 +24°C° 0 mm 3 mps 747 mmHg 62%
    21:00 +21°C° 0 mm 3 mps 747 mmHg 68%
    22:00 +20°C° 0 mm 3 mps 747 mmHg 75%
    23:00 +19°C° 0 mm 3 mps 747 mmHg 75%

    27 January, Monday

    Time Temperature Precipitation Wind Pressure Humidity
    00:00 +18°C° 0 mm 3 mps 747 mmHg 76%
    01:00 +17°C° 0 mm 2 mps 747 mmHg 77%
    02:00 +17°C° 0 mm 2 mps 746 mmHg 78%
    03:00 +16°C° 0 mm 2 mps 746 mmHg 79%
    04:00 +16°C° 0 mm 2 mps 746 mmHg 81%
    05:00 +17°C° 0 mm 2 mps 746 mmHg 75%
    06:00 +18°C° 0 mm 3 mps 746 mmHg 70%
    07:00 +19°C° 0 mm 3 mps 746 mmHg 64%
    08:00 +22°C° 0 mm 3 mps 746 mmHg 52%
    09:00 +26°C° 0 mm 3 mps 745 mmHg 40%
    10:00 +29°C° 0 mm 4 mps 745 mmHg 29%
    11:00 +32°C° 0 mm 4 mps 745 mmHg 23%
    12:00 +34°C° 0 mm 3 mps 745 mmHg 17%
    13:00 +36°C° 0 mm 3 mps 744 mmHg 12%
    14:00 +36°C° 0 mm 3 mps 744 mmHg 12%
    15:00 +36°C° 0 mm 4 mps 744 mmHg 12%
    16:00 +36°C° 0 mm 4 mps 744 mmHg 11%
    17:00 +33°C° 0 mm 4 mps 744 mmHg 15%
    18:00 +29°C° 0 mm 4 mps 745 mmHg 18%
    19:00 +26°C° 0 mm 4 mps 745 mmHg 21%
    20:00 +23°C° 0 mm 4 mps 745 mmHg 24%
    21:00 +20°C° 0 mm 3 mps 745 mmHg 28%
    22:00 +18°C° 0 mm 3 mps 746 mmHg 32%
    23:00 +17°C° 0 mm 3 mps 746 mmHg 37%

    28 January, Tuesday

    Time Temperature Precipitation Wind Pressure Humidity
    00:00 +16°C° 0 mm 2 mps 745 mmHg 42%
    01:00 +15°C° 0 mm 2 mps 745 mmHg 47%
    02:00 +14°C° 0 mm 2 mps 745 mmHg 53%
    03:00 +13°C° 0 mm 2 mps 745 mmHg 59%
    04:00 +13°C° 0 mm 1 mps 745 mmHg 65%
    05:00 +15°C° 0 mm 2 mps 745 mmHg 63%
    06:00 +16°C° 0 mm 2 mps 745 mmHg 61%
    07:00 +18°C° 0 mm 2 mps 745 mmHg 59%
    08:00 +21°C° 0 mm 2 mps 745 mmHg 54%
    09:00 +25°C° 0 mm 2 mps 745 mmHg 49%
    10:00 +28°C° 0 mm 3 mps 745 mmHg 44%
    11:00 +29°C° 0 mm 3 mps 745 mmHg 41%
    12:00 +29°C° 0 mm 3 mps 745 mmHg 39%
    13:00 +30°C° 0 mm 3 mps 744 mmHg 36%
    14:00 +28°C° 0 mm 4 mps 744 mmHg 43%
    15:00 +26°C° 0 mm 4 mps 744 mmHg 50%
    16:00 +23°C° 0 mm 4 mps 744 mmHg 56%
    17:00 +22°C° 0 mm 3 mps 745 mmHg 61%
    18:00 +21°C° 0 mm 3 mps 745 mmHg 66%
    19:00 +20°C° 0 mm 3 mps 745 mmHg 71%
    20:00 +18°C° 0 mm 3 mps 745 mmHg 74%
    21:00 +17°C° 0 mm 3 mps 746 mmHg 77%
    22:00 +16°C° 0 mm 3 mps 746 mmHg 80%
    23:00 +14°C° 0 mm 2 mps 746 mmHg 82%
    Show more